RH
47 47 39 31 28 26 27 25 26 26 25 26 26 27 26 26 26 26 26 26 26 26 26 27 27 28 28 28 28 28 28 26 23 22 21 19 19 18 16 16 15 15 14 14 14 14 14 15 16 16 17 18
23 24 25 24 24 24 25 25 26 25 26 27 26 27 27 27 27 27 27 27 27 29 31 32 32 33 33 31 29 28 28 26 24 21 19 17 17 15 15 14 13 13 13 13 13 12 12 12 13 15 15 16
21 20 22 23 23 25 25 26 27 27 27 27 28 28 27 28 27 28 29 28 29 31 33 33 34 33 33 30 27 25 25 24 22 20 18 16 15 14 13 12 12 12 11 12 12 11 11 10 11 12 13 14
20 21 22 23 25 26 27 28 28 29 29 28 28 28 28 29 29 29 29 28 29 31 32 32 31 29 28 27 24 23 23 23 21 19 17 15 14 13 12 11 11 11 11 11 10 10 10 10 9 9 11 11
24 24 25 25 27 27 28 29 29 30 29 30 29 29 30 30 31 34 37 35 30 31 30 28 29 28 27 25 23 22 21 21 19 17 16 15 14 13 13 12 11 11 11 10 10 10 9 9 9 8 9 9
38 24 27 26 27 28 29 30 31 31 30 30 30 30 31 31 37 48 52 44 36 35 33 30 30 28 26 24 23 22 20 19 17 17 16 16 15 15 15 13 12 11 10 10 9 9 9 9 9 9 8 9
45 26 34 34 32 31 30 31 30 31 32 32 32 31 32 34 43 51 49 42 39 39 36 34 31 28 26 23 22 21 20 18 17 17 17 18 17 16 16 15 13 12 11 10 9 8 8 8 8 9 9 9
48 42 48 44 40 36 36 39 34 32 32 31 33 33 33 35 38 41 39 39 43 43 40 37 34 32 31 28 26 21 20 18 17 17 17 17 16 15 14 13 13 13 12 10 9 8 7 7 7 8 8 8
50 48 46 45 44 40 41 42 37 40 40 34 33 34 35 35 36 38 39 44 50 51 46 43 43 44 44 44 36 28 28 28 23 21 20 20 19 17 16 15 14 13 12 11 10 9 8 7 6 6 6 6
43 39 40 46 46 46 49 45 44 51 50 42 37 37 36 37 46 52 52 57 61 60 55 52 53 53 49 47 42 38 41 41 34 26 24 28 28 23 20 18 15 12 12 11 10 10 9 9 8 7 7 6
36 34 37 40 39 45 53 52 53 54 52 49 44 42 40 41 54 62 60 61 63 62 59 55 54 48 38 40 45 44 48 47 42 38 34 36 35 29 25 22 19 16 14 11 10 9 9 8 9 8 7 7
37 40 41 40 38 40 47 52 56 54 55 58 52 47 45 43 50 58 59 60 61 60 60 58 54 49 42 48 52 47 51 52 49 49 42 37 35 32 28 24 22 20 17 15 12 11 10 9 9 9 9 8
47 50 49 47 44 43 47 50 52 55 58 60 57 49 41 38 43 51 55 59 59 53 54 52 52 60 60 58 57 53 56 56 55 53 42 34 32 31 29 26 24 23 21 18 16 14 14 12 10 10 10 9
55 54 52 51 51 50 52 52 52 55 56 54 47 37 30 28 32 37 39 44 44 38 38 37 41 55 57 51 50 55 60 59 60 52 39 33 31 32 31 28 26 24 23 22 21 20 18 17 15 14 13 12
56 53 51 49 47 46 46 46 45 44 44 41 34 29 31 33 34 37 37 39 40 39 40 40 41 45 46 43 43 52 60 60 57 47 37 33 33 37 36 32 29 29 29 28 27 26 25 24 22 20 18 16
48 45 42 39 36 38 40 38 36 37 39 42 43 40 40 44 46 47 47 46 46 46 46 46 47 45 45 47 50 55 57 53 47 41 38 39 42 45 41 38 39 41 40 37 36 35 34 32 29 26 24 21
42 40 39 37 36 42 47 44 42 44 46 51 55 52 48 51 53 53 51 47 42 41 41 42 43 43 45 50 54 53 49 46 42 39 39 41 42 42 43 46 48 50 48 45 43 41 41 40 36 31 28 27
45 45 44 42 42 45 49 50 49 49 51 54 57 57 56 56 57 56 52 46 38 33 33 34 35 36 41 48 48 44 42 41 37 35 35 36 39 44 50 52 49 47 45 46 47 47 47 44 40 38 36 33
50 50 49 49 49 49 50 52 52 53 56 58 58 59 59 59 58 56 51 44 35 29 28 28 29 30 35 40 37 33 33 31 29 30 32 38 45 49 49 47 44 45 47 47 47 45 43 43 43 44 43 39
51 51 51 52 52 52 54 54 55 58 60 61 62 61 61 60 57 52 47 40 31 27 25 24 24 24 29 31 27 24 24 24 25 28 34 41 48 50 49 48 45 44 43 41 41 42 44 48 49 47 44 37
50 51 53 55 57 59 62 62 62 64 65 64 63 61 59 57 53 49 44 36 30 27 24 22 21 19 22 23 20 19 19 20 21 29 40 45 47 50 48 43 38 34 33 34 36 38 39 41 41 40 37 30
51 53 57 62 65 68 69 68 65 64 63 63 61 57 55 51 47 44 39 33 29 26 23 20 18 17 17 17 17 17 17 17 17 25 36 36 34 33 30 28 27 26 26 26 28 30 32 33 32 30 26 23
59 62 66 68 69 69 67 65 62 60 60 59 56 51 47 44 41 39 35 31 28 25 21 17 15 14 14 13 14 14 14 14 14 17 20 19 18 17 19 23 24 27 32 38 43 43 39 36 31 28 26 26
71 71 70 69 67 65 64 62 59 56 56 53 50 46 40 36 35 33 30 28 26 24 20 16 13 12 11 11 11 12 11 11 11 11 12 12 14 17 19 22 26 36 50 57 52 41 34 36 39 37 32 28
74 71 69 67 66 65 63 61 58 55 53 50 47 43 37 32 30 29 26 24 23 21 19 16 14 11 10 10 10 10 9 9 9 9 10 12 15 20 23 23 24 30 43 48 43 43 46 45 42 37 33 32
71 70 69 68 67 66 63 61 59 56 54 51 48 43 38 33 29 27 24 21 19 18 17 16 14 13 12 11 10 9 8 8 8 8 9 10 13 19 22 22 20 25 42 56 63 71 67 49 38 35 37 41
70 70 69 68 66 63 61 58 56 54 53 51 47 42 38 34 28 25 23 19 18 16 14 14 14 13 12 11 9 8 8 8 7 8 7 8 15 22 20 15 16 26 47 67 73 70 59 51 50 43 34 33
69 67 66 64 61 58 56 53 50 49 48 46 43 38 33 29 24 21 19 17 15 14 13 13 12 11 10 9 8 8 8 7 7 7 7 9 16 21 18 13 12 15 25 38 48 56 60 60 62 52 41 40
64 63 61 59 56 54 51 48 45 43 42 40 37 32 27 23 20 19 17 15 15 13 14 16 13 9 9 7 7 7 7 7 6 7 7 9 13 16 15 12 9 8 9 13 27 53 69 69 70 64 56 51
61 60 59 57 55 53 49 47 42 39 37 32 27 23 20 17 17 19 16 15 18 14 14 21 17 9 8 7 6 7 7 7 7 7 7 8 10 10 10 9 8 8 10 13 23 46 63 69 74 73 66 66
62 61 60 58 56 53 49 44 39 35 31 24 20 17 15 13 14 18 16 13 15 13 14 20 17 9 7 7 7 7 7 7 7 7 7 7 8 7 7 7 8 10 13 13 16 27 43 57 68 72 72 77
Wind_Speed
12 11 11 11 10 9 8 7 6 5 5 4 4 4 5 5 5 6 6 7 7 8 9 10 11 12 12 11 10 10 10 10 10 9 9 8 8 8 8 8 9 10 10 11 10 9 7 5 4 6 7 7
12 11 10 9 8 7 7 7 6 6 5 5 5 6 6 6 7 7 8 9 8 9 10 10 11 12 13 12 10 9 10 11 11 10 9 9 8 9 9 9 10 10 11 11 11 11 11 9 7 6 7 7
10 9 8 7 7 7 6 6 6 6 6 6 6 7 8 8 9 10 11 11 10 9 9 10 10 11 12 13 11 9 10 10 11 11 11 10 10 10 10 10 10 11 11 11 12 12 13 13 11 8 7 8
8 8 8 7 7 6 6 6 6 6 7 7 8 9 10 10 12 13 14 13 11 10 9 9 10 11 12 13 12 10 10 11 12 12 12 11 11 10 11 11 11 11 11 12 12 12 13 13 13 11 10 10
7 7 7 8 7 7 7 6 6 7 8 9 9 10 10 11 14 14 15 15 15 14 14 12 12 12 12 13 13 12 11 10 11 12 11 12 11 11 11 12 11 10 10 11 12 13 13 13 14 14 13 12
6 7 7 7 8 7 7 7 7 8 9 10 11 11 11 11 12 11 11 16 18 18 18 18 16 14 14 13 13 13 12 10 11 11 11 11 12 12 12 12 13 13 12 11 11 12 13 13 14 14 14 14
4 4 4 5 6 6 7 8 8 9 10 10 12 12 12 11 10 9 11 16 19 19 19 20 19 17 16 15 13 12 12 12 10 10 10 10 11 12 12 12 13 14 14 15 14 14 13 13 14 14 15 15
2 3 3 3 5 6 5 7 8 9 11 11 12 12 12 11 11 12 13 16 18 19 18 19 20 18 17 17 15 13 14 15 13 12 13 12 13 13 13 13 13 14 15 16 16 17 16 15 14 15 15 15
4 5 4 3 4 5 4 7 8 8 11 13 12 11 12 13 13 13 12 14 17 18 17 16 17 17 16 17 18 18 17 17 16 16 16 16 16 16 16 16 16 15 14 15 16 17 18 17 16 16 16 16
5 6 5 4 4 3 4 6 5 5 9 13 12 10 11 10 9 10 9 10 13 15 14 12 12 12 13 14 16 17 16 16 17 16 15 15 16 17 17 18 18 17 16 14 14 15 16 16 16 16 16 16
6 6 6 6 6 4 4 3 3 6 8 11 12 10 10 7 3 4 4 6 9 10 10 10 10 12 12 11 12 13 13 15 16 16 14 14 16 17 18 19 19 20 20 19 18 17 16 16 16 16 17 16
4 4 4 5 5 5 5 4 4 3 3 5 9 9 8 7 5 4 3 6 7 7 8 9 11 13 12 10 11 12 12 14 14 15 14 14 16 17 18 19 20 21 22 22 22 22 21 20 17 16 17 17
3 3 3 3 3 3 3 3 2 1 3 4 9 10 8 6 7 7 6 7 8 8 9 9 9 9 9 9 11 11 12 14 14 15 16 17 18 19 19 19 20 20 21 22 23 23 23 24 22 19 18 18
4 4 3 3 2 3 3 2 2 3 4 7 8 8 8 6 5 6 7 8 10 10 10 11 9 8 9 11 11 10 12 15 16 16 19 20 21 21 20 20 20 20 21 21 22 22 23 25 25 24 22 20
6 4 3 3 2 2 2 1 2 1 3 6 7 6 7 9 9 9 11 12 13 14 14 15 14 13 14 15 13 11 12 16 18 20 22 23 22 21 22 23 23 22 21 22 22 23 24 25 26 27 26 25
6 5 4 4 4 5 4 3 3 4 6 8 10 10 10 12 13 15 16 17 18 18 19 19 19 19 18 17 16 15 17 19 21 23 24 22 20 21 23 24 24 23 22 23 23 23 24 24 26 28 29 29
7 7 7 7 7 7 6 5 6 6 7 9 9 12 15 15 17 19 20 21 21 20 20 20 20 19 18 17 18 20 21 22 24 25 24 22 21 22 22 21 20 21 22 22 23 24 24 24 25 28 29 29
10 9 8 7 6 6 5 5 5 6 8 9 10 13 17 18 20 23 24 24 24 22 21 20 19 19 17 18 22 23 24 25 26 25 24 23 22 21 20 20 20 22 23 23 23 23 23 24 26 27 28 28
13 12 11 10 8 7 7 6 7 9 11 13 14 16 19 21 23 26 27 27 26 24 22 21 20 18 18 21 24 24 24 25 25 24 23 21 21 21 21 22 23 23 23 23 23 23 24 25 25 26 27 28
11 10 10 10 10 10 10 11 12 14 16 17 19 21 23 24 26 27 28 28 27 25 23 22 20 19 19 22 24 24 24 23 22 21 20 19 19 21 22 23 23 23 23 24 25 24 23 23 24 26 28 30
8 8 8 9 10 11 13 15 17 18 19 21 23 25 27 28 27 28 28 27 27 26 24 22 21 20 20 23 24 24 23 21 20 18 18 19 19 20 22 23 24 25 25 25 25 25 25 25 26 27 29 31
8 9 10 11 13 15 16 18 19 19 20 23 27 28 30 30 29 30 28 26 27 25 24 23 21 21 21 23 23 23 23 21 19 18 19 21 21 22 23 24 25 25 25 25 25 26 26 26 27 28 29 29
12 12 14 16 18 19 21 22 21 19 21 25 29 30 31 31 31 31 28 26 26 25 24 23 22 22 22 23 23 23 23 22 21 20 20 22 23 23 22 22 22 22 23 23 24 24 26 27 28 28 26 26
19 19 20 21 23 24 25 26 23 20 22 26 29 30 30 30 31 30 28 26 26 24 24 23 22 22 22 23 24 23 23 22 22 21 21 21 22 22 21 21 20 18 19 21 23 25 26 26 25 25 25 25
24 24 25 26 26 27 27 27 25 22 24 27 29 29 28 28 29 29 28 26 26 24 24 23 23 23 23 23 23 23 23 22 22 21 21 20 20 21 21 20 19 17 17 21 24 24 24 24 24 24 21 18
25 26 27 27 28 28 29 28 28 27 27 28 29 28 27 27 27 27 27 26 26 25 24 24 24 23 24 24 23 23 22 22 21 21 20 20 20 20 20 20 19 16 15 18 19 20 25 26 23 19 13 11
26 26 27 28 28 29 30 30 31 31 30 30 30 29 28 27 26 26 26 25 25 24 24 24 24 24 24 23 23 23 23 22 21 20 20 19 19 20 21 21 19 14 12 15 17 19 22 22 23 22 16 12
27 28 28 29 30 31 32 33 35 34 32 31 31 29 28 27 26 26 25 24 24 23 23 24 25 25 24 22 22 23 23 22 21 20 19 18 19 21 22 23 21 17 15 16 17 16 18 18 19 20 15 12
28 29 31 32 33 34 36 37 38 37 35 33 31 30 28 27 26 25 24 23 23 23 22 23 25 25 23 22 21 21 22 21 20 19 18 19 20 21 22 22 23 21 17 16 14 13 17 17 15 16 16 19
30 32 33 35 37 38 40 41 39 37 35 32 30 29 27 26 24 23 23 22 22 22 22 23 26 26 24 23 22 21 21 20 19 19 19 20 21 21 21 21 23 22 18 16 14 13 15 16 17 22 23 24
32 34 35 37 39 39 40 41 39 36 33 30 28 27 26 24 22 21 22 21 21 22 21 22 26 25 24 23 22 21 21 20 19 20 20 20 20 21 20 20 21 22 20 19 18 15 16 18 19 21 21 21
Wind_Direction
159 160 168 176 182 185 189 198 204 218 229 241 256 265 271 276 280 288 293 300 308 310 313 314 312 311 310 315 325 329 328 326 328 335 337 341 341 336 336 334 333 334 334 334 335 336 335 332 324 319 318 319
179 183 188 190 196 200 204 212 219 231 245 256 267 277 283 289 292 296 299 301 310 317 320 319 317 314 312 314 321 324 324 320 320 326 329 332 335 329 327 328 329 330 330 329 329 329 327 325 321 318 309 306
192 196 199 202 205 211 219 226 237 250 258 270 280 288 292 299 306 308 305 304 313 322 322 322 318 315 313 311 316 320 318 315 317 322 325 328 328 326 324 324 325 325 324 323 324 323 322 321 320 321 308 298
198 201 202 208 213 216 226 235 247 261 270 283 290 297 305 313 316 313 308 305 310 318 315 318 316 312 312 310 312 316 316 315 316 319 321 323 323 323 320 317 318 320 319 318 318 317 316 315 314 316 309 301
195 197 203 204 213 221 231 244 257 270 279 291 296 302 309 316 321 319 317 313 314 320 313 311 313 311 310 308 310 313 314 314 314 316 317 318 318 318 317 314 314 313 310 310 312 313 313 312 311 311 309 306
179 189 209 214 223 233 241 252 264 278 285 292 295 298 306 318 326 321 317 313 313 318 314 310 312 311 307 305 309 311 312 314 314 314 316 318 316 317 318 314 312 311 309 309 309 308 309 309 309 309 308 307
193 189 216 241 248 257 266 268 268 279 288 293 297 300 308 315 314 303 304 307 306 310 311 309 310 310 308 305 305 307 311 314 310 307 312 313 312 313 312 310 313 316 316 315 313 310 308 307 307 307 307 307
192 181 207 255 268 277 284 282 281 287 289 288 291 297 302 300 299 301 302 302 301 305 310 310 312 315 315 314 311 313 317 317 316 317 319 316 314 316 314 316 320 320 318 316 315 314 312 311 309 307 305 305
194 209 217 239 265 282 275 279 293 300 293 286 287 291 293 296 299 301 302 302 301 306 312 313 315 319 321 320 318 322 325 323 324 326 326 324 322 324 323 322 321 317 314 313 313 312 312 313 313 310 307 305
222 226 216 222 242 263 269 283 294 285 283 286 290 291 289 293 305 311 315 309 303 310 315 314 310 308 311 311 312 319 322 318 317 320 324 322 318 320 321 319 318 316 313 310 309 308 309 311 311 310 308 307
241 239 230 237 241 230 244 274 267 267 283 292 291 288 285 280 281 313 312 287 289 306 309 303 295 295 304 304 304 310 308 305 308 314 319 315 311 315 317 319 320 320 319 318 317 314 312 311 312 311 310 309
243 243 240 242 244 235 230 231 247 282 318 301 286 283 287 273 239 224 243 266 269 281 291 294 299 310 321 312 305 308 300 298 302 305 308 309 308 311 315 318 320 322 322 322 322 322 320 318 318 316 313 311
197 194 193 211 233 226 215 220 214 173 176 236 274 290 299 283 255 242 237 257 265 270 283 294 304 315 318 305 304 308 300 296 292 291 301 310 310 310 312 314 318 319 318 319 320 322 321 319 319 319 317 315
143 162 177 187 183 172 177 178 177 194 226 254 283 308 320 317 298 283 273 278 288 294 298 303 303 295 290 290 294 297 294 290 284 289 303 309 308 307 308 311 314 314 314 316 318 319 319 318 318 318 317 315
126 140 153 157 160 168 163 149 191 246 298 312 324 339 344 340 333 325 317 314 314 313 313 313 311 305 302 301 301 291 277 275 280 291 302 305 308 310 310 313 315 316 316 316 316 317 317 317 316 316 315 315
117 112 103 102 96 83 70 49 26 12 4 357 346 337 340 341 335 330 326 323 320 316 314 313 311 310 309 306 299 284 273 276 286 295 300 305 307 307 307 311 314 316 316 315 315 314 314 314 313 312 313 312
98 98 95 92 89 78 60 36 25 14 3 2 347 332 332 335 333 328 325 325 321 317 313 310 308 306 304 296 287 282 283 287 291 294 297 300 299 298 301 303 304 305 306 306 306 306 308 308 308 308 308 308
70 66 65 66 67 65 54 33 13 1 351 345 332 327 326 327 329 325 324 325 323 320 315 309 305 301 295 285 282 285 287 289 291 294 296 297 297 295 293 291 290 291 293 294 296 298 299 299 301 302 301 302
70 58 48 39 32 27 18 2 351 345 337 331 324 322 322 323 326 324 324 325 323 322 317 310 305 300 291 284 285 288 290 292 294 296 297 296 294 290 287 286 287 288 289 289 288 289 292 294 296 295 294 295
84 75 61 42 25 14 2 345 336 335 330 325 321 321 322 324 324 323 324 325 323 322 318 312 307 302 293 289 290 293 295 297 298 299 298 293 289 287 287 287 288 287 287 288 289 289 289 289 288 288 289 292
66 56 43 27 11 359 356 344 335 334 328 323 322 323 324 324 324 323 325 325 321 321 319 312 309 304 296 293 295 298 299 299 300 299 294 289 285 285 286 288 290 290 290 290 290 289 287 284 283 283 286 291
21 13 2 355 350 345 346 344 340 335 326 322 323 324 325 324 324 323 325 325 320 320 317 311 309 303 298 297 298 299 299 300 298 294 289 287 288 288 289 291 292 294 294 294 293 292 291 289 288 288 291 294
350 345 341 338 338 338 339 341 342 334 324 322 322 324 326 324 323 323 325 323 319 318 314 311 307 302 300 299 298 299 299 299 298 294 292 292 294 293 293 294 296 299 302 301 297 294 294 294 294 296 297 297
340 336 335 335 335 336 338 339 340 332 322 321 321 324 326 323 322 323 324 321 318 316 312 308 306 303 301 298 297 299 299 300 300 299 298 297 298 297 296 296 297 301 300 295 293 293 295 295 296 297 297 298
338 336 335 336 337 337 337 338 336 328 321 319 319 322 323 321 321 321 322 320 317 314 311 307 304 302 299 297 299 300 300 301 300 299 299 298 297 296 296 296 296 297 296 294 297 301 298 293 293 296 299 300
335 336 335 336 336 335 334 335 333 328 323 320 319 320 320 319 319 319 319 318 316 314 311 307 304 301 299 301 302 301 300 299 298 298 297 296 295 293 292 293 296 300 300 299 300 301 297 297 300 296 289 290
333 334 334 334 334 333 332 333 331 328 325 321 319 319 319 319 319 318 318 317 314 313 311 307 303 302 302 304 303 301 300 299 298 297 296 295 292 290 290 291 293 292 285 283 286 291 294 301 305 298 289 279
333 334 335 334 334 333 333 333 332 329 326 322 320 321 320 320 320 318 318 316 313 312 311 306 303 303 304 305 303 302 302 300 299 298 296 292 287 287 290 291 291 285 276 273 280 289 292 297 299 297 299 286
334 335 335 335 335 334 333 334 333 330 327 323 321 321 320 321 320 318 317 317 314 312 311 307 302 303 306 306 304 303 302 301 300 297 292 288 285 287 290 291 291 288 283 278 274 276 284 294 293 286 294 296
335 335 336 336 336 336 334 335 333 330 326 322 321 320 320 320 319 315 315 315 312 311 310 305 301 303 308 307 305 304 302 301 299 293 290 289 288 289 289 290 289 288 286 279 265 255 262 272 276 283 293 297
335 335 336 336 336 335 334 333 331 326 322 320 319 318 318 319 317 312 311 311 309 308 306 300 298 303 308 307 307 306 302 301 298 294 293 291 289 289 290 288 287 287 286 281 273 261 253 252 257 270 281 283